Regional Weather Roundup
Issued by NWS Cleveland, OH

Home | Current Version | Previous Version | Graphics & Text | Print | Product List | Glossary On
Versions: 1 2 3 4 5 6 7 8 9 10 11 12 13 14 15 16 17 18 19 20 21 22 23 24 25 26 27 28 29 30 31 32 33 34 35 36 37 38 39 40 41 42 43 44 45 46 47 48 49 50
000
ASUS41 KCLE 240500
RWRCLE
OHIO REGIONAL WEATHER ROUNDUP
NATIONAL WEATHER SERVICE WILMINGTON, OH
100 AM EDT WED MAY 24 2017

NOTE: "FAIR" INDICATES FEW OR NO CLOUDS BELOW 12,000 FEET WITH NO
SIGNIFICANT WEATHER AND/OR OBSTRUCTIONS TO VISIBILITY.

OHZ001>008-015>018-024>027-034-035-043-044-240600-
   NORTHWEST OHIO

CITY           SKY/WX    TMP DP  RH WIND       PRES   REMARKS
DEFIANCE       FAIR      60  48  64 NE7       29.65F
FINDLAY        FAIR      61  48  62 E8        29.63F
TOLEDO EXPRESS FAIR      59  51  75 N6        29.65F
TOLEDO EXEC    FAIR      62  49  62 NE7       29.66F
LIMA           FAIR      58  54  86 E3        29.63F
$$

OHZ009>014-019>023-028>033-038-089-240600-
   NORTHEAST OHIO

CITY           SKY/WX    TMP DP  RH WIND       PRES   REMARKS
CLE-HOPKINS    CLOUDY    66  50  56 SE7       29.69F
CLE-LAKEFRONT  FAIR      67  48  50 SE8       29.66F
CUY CO. ARPT   NOT AVBL
LORAIN-ELYRIA  FAIR      59  49  69 SE5       29.67F
ASHTABULA      FAIR      56  50  80 E7        29.70F
AKRON-CANTON   MOCLDY    63  52  67 S7        29.69F
WOOSTER        NOT AVBL
MANSFIELD      MOCLDY    63  54  72 SE8       29.67S
YOUNGSTOWN     FAIR      58  49  72 SE7       29.71F
$$

OHZ042-051>053-060>062-070>072-077>081-240600-
  SOUTHWEST OHIO

CITY           SKY/WX    TMP DP  RH WIND       PRES   REMARKS
CINC-COVINGTON CLOUDY    65  59  81 S12       29.64R
CINC-LUNKEN    FAIR      64  60  87 S7        29.64R
HAMILTON       FAIR      67  59  75 VRB3      29.64S
DAYTON         NOT AVBL
WRIGHT-PAT AFB CLOUDY    63  55  75 CALM      29.64S
DAYTON GENERAL FAIR      63  56  78 SE7       29.63S
WILMINGTON     FAIR      61  59  93 SE7       29.65S
$$

OHZ036-037-039>041-045>050-054>059-063>069-073>076-082>088-240600-
  CENTRAL AND SOUTHEAST OHIO

CITY           SKY/WX    TMP DP  RH WIND       PRES   REMARKS
COLUMBUS       CLOUDY    64  60  87 SE8       29.66F
OSU AIRPORT    MOCLDY    65  60  84 SE8       29.66S
BOLTON FIELD   NOT AVBL
RICKENBACK AFB NOT AVBL
NEWARK         MOCLDY    63  59  87 SE5       29.67S
MARION         FAIR      63  52  67 SE7       29.65F
LANCASTER      FAIR      64  59  83 S8        29.66F
ZANESVILLE     CLOUDY    63  59  87 S3        29.68F
NEW PHILLY     CLOUDY    63  56  78 CALM      29.70S
$$




USA.gov is the U.S. government's official web portal to all federal, state and local government web resources and services.